Time,TemperatureF,DewpointF,PressureIn,WindDirection,WindDirectionDegrees,WindSpeedMPH,WindSpeedGustMPH,Humidity,HourlyPrecipIn,Conditions,Clouds,dailyrainin,SoftwareType,DateUTC
2013-03-16 00:00:00,32.0,28.3,29.67,WSW,256,0.0,-999.0,86,0.00,,,0.00,Python,2013-03-16 04:00:00,
2013-03-16 00:01:00,32.0,28.3,29.67,WSW,244,0.0,-999.0,86,0.00,,,0.00,Python,2013-03-16 04:01:00,
2013-03-16 00:02:00,32.0,28.3,29.67,WSW,244,0.0,-999.0,86,0.00,,,0.00,Python,2013-03-16 04:02:00,
2013-03-16 00:08:00,31.8,28.1,29.67,SW,217,0.0,-999.0,86,0.00,,,0.00,Python,2013-03-16 04:08:00,
2013-03-16 00:13:00,31.7,28.0,29.67,SSW,205,0.0,-999.0,86,0.00,,,0.00,Python,2013-03-16 04:13:00,
2013-03-16 00:18:00,31.6,27.9,29.67,WSW,242,0.0,-999.0,86,0.00,,,0.00,Python,2013-03-16 04:18:00,
2013-03-16 00:23:00,31.7,27.7,29.67,WSW,238,0.0,-999.0,85,0.00,,,0.00,Python,2013-03-16 04:23:00,
2013-03-16 00:28:00,31.5,27.5,29.67,SW,233,1.0,-999.0,85,0.00,,,0.00,Python,2013-03-16 04:28:00,
2013-03-16 00:33:00,31.4,27.4,29.67,SW,233,0.0,-999.0,85,0.00,,,0.00,Python,2013-03-16 04:33:00,
2013-03-16 00:38:00,31.4,27.4,29.67,SW,221,0.0,-999.0,85,0.00,,,0.00,Python,2013-03-16 04:38:00,
2013-03-16 00:43:00,31.3,27.3,29.67,West,273,0.0,-999.0,85,0.00,,,0.00,Python,2013-03-16 04:43:00,
2013-03-16 00:48:00,31.3,27.3,29.67,WSW,240,0.0,-999.0,85,0.00,,,0.00,Python,2013-03-16 04:48:00,
2013-03-16 00:53:00,31.2,27.2,29.68,WSW,240,0.0,-999.0,85,0.00,,,0.00,Python,2013-03-16 04:53:00,
2013-03-16 00:59:00,31.0,27.0,29.68,WSW,238,0.0,-999.0,85,0.00,,,0.00,Python,2013-03-16 04:59:00,
2013-03-16 01:04:00,31.1,27.1,29.68,SSE,162,0.0,-999.0,85,0.00,,,0.00,Python,2013-03-16 05:04:00,
2013-03-16 01:09:00,31.2,26.9,29.68,SSE,162,0.0,-999.0,84,0.00,,,0.00,Python,2013-03-16 05:09:00,
2013-03-16 01:14:00,31.4,27.1,29.69,SSE,162,0.0,-999.0,84,0.00,,,0.00,Python,2013-03-16 05:14:00,
2013-03-16 01:19:00,31.6,27.3,29.69,ESE,113,0.0,-999.0,84,0.00,,,0.00,Python,2013-03-16 05:19:00,
2013-03-16 01:24:00,31.9,27.3,29.69,ENE,58,0.0,-999.0,83,0.00,,,0.00,Python,2013-03-16 05:24:00,
2013-03-16 01:29:00,32.1,27.5,29.69,NE,48,1.0,-999.0,83,0.00,,,0.00,Python,2013-03-16 05:29:00,
2013-03-16 01:34:00,32.1,27.5,29.70,NE,38,0.0,-999.0,83,0.00,,,0.00,Python,2013-03-16 05:34:00,
2013-03-16 01:40:00,32.1,27.5,29.70,NE,40,0.0,-999.0,83,0.00,,,0.00,Python,2013-03-16 05:40:00,
2013-03-16 01:45:00,31.9,27.3,29.70,NE,40,0.0,-999.0,83,0.00,,,0.00,Python,2013-03-16 05:45:00,
2013-03-16 01:50:00,31.8,27.2,29.70,NE,40,0.0,-999.0,83,0.00,,,0.00,Python,2013-03-16 05:50:00,
2013-03-16 01:55:00,31.7,26.8,29.70,NE,40,0.0,-999.0,82,0.00,,,0.00,Python,2013-03-16 05:55:00,
2013-03-16 02:00:00,31.5,26.9,29.71,NE,40,0.0,-999.0,83,0.00,,,0.00,Python,2013-03-16 06:00:00,
2013-03-16 02:06:00,31.4,26.8,29.70,SSW,205,0.0,-999.0,83,0.00,,,0.00,Python,2013-03-16 06:06:00,
2013-03-16 02:11:00,31.3,26.7,29.71,ESE,106,0.0,-999.0,83,0.00,,,0.00,Python,2013-03-16 06:11:00,
2013-03-16 02:16:00,31.2,26.3,29.71,East,83,0.0,-999.0,82,0.00,,,0.00,Python,2013-03-16 06:16:00,
2013-03-16 02:21:00,31.3,25.9,29.71,East,83,0.0,-999.0,80,0.00,,,0.00,Python,2013-03-16 06:21:00,
2013-03-16 02:26:00,31.3,25.9,29.71,NNE,20,0.0,-999.0,80,0.00,,,0.00,Python,2013-03-16 06:26:00,
2013-03-16 02:32:00,31.2,25.5,29.71,NNE,27,1.0,-999.0,79,0.00,,,0.00,Python,2013-03-16 06:32:00,
2013-03-16 02:37:00,31.2,25.2,29.72,East,82,0.0,-999.0,78,0.00,,,0.00,Python,2013-03-16 06:37:00,
2013-03-16 02:42:00,31.2,24.5,29.72,NE,53,0.0,-999.0,76,0.00,,,0.00,Python,2013-03-16 06:42:00,
2013-03-16 02:47:00,31.1,24.5,29.72,NE,48,0.0,-999.0,76,0.00,,,0.00,Python,2013-03-16 06:47:00,
2013-03-16 02:52:00,31.0,24.0,29.72,West,269,0.0,-999.0,75,0.00,,,0.00,Python,2013-03-16 06:52:00,
2013-03-16 02:57:00,30.9,23.9,29.72,West,269,0.0,-999.0,75,0.00,,,0.00,Python,2013-03-16 06:57:00,
2013-03-16 03:02:00,30.9,24.3,29.72,SW,220,0.0,-999.0,76,0.00,,,0.00,Python,2013-03-16 07:02:00,
2013-03-16 03:07:00,30.8,24.2,29.73,SSW,207,0.0,-999.0,76,0.00,,,0.00,Python,2013-03-16 07:07:00,
2013-03-16 03:12:00,30.8,24.2,29.73,SSW,207,0.0,-999.0,76,0.00,,,0.00,Python,2013-03-16 07:12:00,
2013-03-16 03:17:00,30.7,24.1,29.73,SSE,148,0.0,-999.0,76,0.00,,,0.00,Python,2013-03-16 07:17:00,
2013-03-16 03:22:00,30.6,24.0,29.73,SE,138,0.0,-999.0,76,0.00,,,0.00,Python,2013-03-16 07:22:00,
2013-03-16 03:28:00,30.5,23.9,29.73,SE,138,0.0,-999.0,76,0.00,,,0.00,Python,2013-03-16 07:28:00,
2013-03-16 03:33:00,30.4,23.8,29.73,SSE,166,0.0,-999.0,76,0.00,,,0.00,Python,2013-03-16 07:33:00,
2013-03-16 03:38:00,30.3,23.7,29.74,ENE,59,0.0,-999.0,76,0.00,,,0.00,Python,2013-03-16 07:38:00,
2013-03-16 03:43:00,30.2,23.6,29.74,ENE,67,0.0,-999.0,76,0.00,,,0.00,Python,2013-03-16 07:43:00,
2013-03-16 03:48:00,30.2,23.6,29.74,ENE,63,0.0,-999.0,76,0.00,,,0.00,Python,2013-03-16 07:48:00,
2013-03-16 03:53:00,30.0,23.4,29.74,ENE,75,0.0,-999.0,76,0.00,,,0.00,Python,2013-03-16 07:53:00,
2013-03-16 03:58:00,29.9,23.3,29.74,ENE,75,0.0,-999.0,76,0.00,,,0.00,Python,2013-03-16 07:58:00,
2013-03-16 04:04:00,29.8,23.5,29.74,ENE,75,0.0,-999.0,77,0.00,,,0.00,Python,2013-03-16 08:04:00,
2013-03-16 04:09:00,29.6,23.3,29.74,ENE,75,0.0,-999.0,77,0.00,,,0.00,Python,2013-03-16 08:09:00,
2013-03-16 04:14:00,29.4,23.1,29.75,ENE,75,0.0,-999.0,77,0.00,,,0.00,Python,2013-03-16 08:14:00,
2013-03-16 04:19:00,29.3,23.0,29.75,ENE,75,0.0,-999.0,77,0.00,,,0.00,Python,2013-03-16 08:19:00,
2013-03-16 04:24:00,29.2,23.2,29.75,SE,142,0.0,-999.0,78,0.00,,,0.00,Python,2013-03-16 08:24:00,
2013-03-16 04:29:00,29.0,23.0,29.75,SE,142,0.0,-999.0,78,0.00,,,0.00,Python,2013-03-16 08:29:00,
2013-03-16 04:34:00,28.9,22.9,29.75,NNE,29,0.0,-999.0,78,0.00,,,0.00,Python,2013-03-16 08:34:00,
2013-03-16 04:40:00,28.8,23.1,29.75,NNE,29,0.0,-999.0,79,0.00,,,0.00,Python,2013-03-16 08:40:00,
2013-03-16 04:45:00,28.5,22.8,29.75,NNE,29,0.0,-999.0,79,0.00,,,0.00,Python,2013-03-16 08:45:00,
2013-03-16 04:50:00,28.3,22.9,29.76,NNE,29,0.0,-999.0,80,0.00,,,0.00,Python,2013-03-16 08:50:00,
2013-03-16 04:55:00,28.1,22.7,29.76,NNE,29,0.0,-999.0,80,0.00,,,0.00,Python,2013-03-16 08:55:00,
2013-03-16 05:00:00,28.0,22.6,29.76,NNE,29,0.0,-999.0,80,0.00,,,0.00,Python,2013-03-16 09:00:00,
2013-03-16 05:05:00,27.9,22.5,29.76,NNE,29,0.0,-999.0,80,0.00,,,0.00,Python,2013-03-16 09:05:00,
2013-03-16 05:10:00,27.8,22.7,29.76,NNE,29,0.0,-999.0,81,0.00,,,0.00,Python,2013-03-16 09:10:00,
2013-03-16 05:15:00,27.7,22.9,29.77,NNE,29,0.0,-999.0,82,0.00,,,0.00,Python,2013-03-16 09:15:00,
2013-03-16 05:21:00,27.5,22.7,29.77,NNE,29,0.0,-999.0,82,0.00,,,0.00,Python,2013-03-16 09:21:00,
2013-03-16 05:27:00,27.4,22.6,29.77,NNE,29,0.0,-999.0,82,0.00,,,0.00,Python,2013-03-16 09:27:00,
2013-03-16 05:32:00,27.2,22.4,29.77,NNE,29,0.0,-999.0,82,0.00,,,0.00,Python,2013-03-16 09:32:00,
2013-03-16 05:38:00,27.1,22.3,29.77,NNE,29,0.0,-999.0,82,0.00,,,0.00,Python,2013-03-16 09:38:00,
2013-03-16 05:43:00,27.1,22.3,29.78,NNE,29,0.0,-999.0,82,0.00,,,0.00,Python,2013-03-16 09:43:00,
2013-03-16 05:48:00,27.0,22.5,29.78,NNE,29,0.0,-999.0,83,0.00,,,0.00,Python,2013-03-16 09:48:00,
2013-03-16 05:53:00,27.0,22.2,29.78,NNE,29,0.0,-999.0,82,0.00,,,0.00,Python,2013-03-16 09:53:00,
2013-03-16 05:58:00,27.1,22.6,29.78,NNE,29,0.0,-999.0,83,0.00,,,0.00,Python,2013-03-16 09:58:00,
2013-03-16 06:04:00,27.1,22.3,29.79,NNE,29,0.0,-999.0,82,0.00,,,0.00,Python,2013-03-16 10:04:00,
2013-03-16 06:09:00,27.1,22.6,29.79,NNE,29,0.0,-999.0,83,0.00,,,0.00,Python,2013-03-16 10:09:00,
2013-03-16 06:14:00,27.1,22.6,29.79,NNE,29,0.0,-999.0,83,0.00,,,0.00,Python,2013-03-16 10:14:00,
2013-03-16 06:19:00,27.1,22.9,29.79,NNE,29,0.0,-999.0,84,0.00,,,0.00,Python,2013-03-16 10:19:00,
2013-03-16 06:24:00,27.2,23.0,29.79,NNE,29,0.0,-999.0,84,0.00,,,0.00,Python,2013-03-16 10:24:00,
2013-03-16 06:29:00,27.3,21.9,29.79,NNE,29,0.0,-999.0,80,0.00,,,0.00,Python,2013-03-16 10:29:00,
2013-03-16 06:34:00,27.5,22.1,29.79,NNE,29,0.0,-999.0,80,0.00,,,0.00,Python,2013-03-16 10:34:00,
2013-03-16 06:39:00,27.6,22.0,29.79,NNE,29,0.0,-999.0,79,0.00,,,0.00,Python,2013-03-16 10:39:00,
2013-03-16 06:44:00,27.6,21.7,29.80,ENE,74,0.0,-999.0,78,0.00,,,0.00,Python,2013-03-16 10:44:00,
2013-03-16 06:49:00,27.7,21.5,29.80,ENE,74,0.0,-999.0,77,0.00,,,0.00,Python,2013-03-16 10:49:00,
2013-03-16 06:54:00,27.7,20.5,29.80,East,99,0.0,-999.0,74,0.00,,,0.00,Python,2013-03-16 10:54:00,
2013-03-16 06:59:00,27.8,20.3,29.80,East,99,0.0,-999.0,73,0.00,,,0.00,Python,2013-03-16 10:59:00,
2013-03-16 07:04:00,27.7,19.9,29.80,East,99,0.0,-999.0,72,0.00,,,0.00,Python,2013-03-16 11:04:00,
2013-03-16 07:09:00,27.6,20.1,29.80,East,99,0.0,-999.0,73,0.00,,,0.00,Python,2013-03-16 11:09:00,
2013-03-16 07:15:00,27.5,20.0,29.80,East,99,0.0,-999.0,73,0.00,,,0.00,Python,2013-03-16 11:15:00,
2013-03-16 07:20:00,27.4,19.9,29.80,South,175,0.0,-999.0,73,0.00,,,0.00,Python,2013-03-16 11:20:00,
2013-03-16 07:25:00,27.3,19.5,29.81,South,175,0.0,-999.0,72,0.00,,,0.00,Python,2013-03-16 11:25:00,
2013-03-16 07:30:00,27.4,19.6,29.81,South,175,0.0,-999.0,72,0.00,,,0.00,Python,2013-03-16 11:30:00,
2013-03-16 07:35:00,27.3,19.8,29.81,South,175,0.0,-999.0,73,0.00,,,0.00,Python,2013-03-16 11:35:00,
2013-03-16 07:40:00,27.4,19.9,29.81,South,174,0.0,-999.0,73,0.00,,,0.00,Python,2013-03-16 11:40:00,
2013-03-16 07:45:00,27.4,18.6,29.81,East,96,0.0,-999.0,69,0.00,,,0.00,Python,2013-03-16 11:45:00,
2013-03-16 07:51:00,27.6,18.1,29.81,ESE,103,0.0,-999.0,67,0.00,,,0.00,Python,2013-03-16 11:51:00,
2013-03-16 07:56:00,27.8,18.3,29.82,ESE,117,0.0,-999.0,67,0.00,,,0.00,Python,2013-03-16 11:56:00,
2013-03-16 08:01:00,27.9,18.4,29.82,East,80,0.0,-999.0,67,0.00,,,0.00,Python,2013-03-16 12:01:00,
2013-03-16 08:06:00,28.0,18.5,29.82,East,80,0.0,-999.0,67,0.00,,,0.00,Python,2013-03-16 12:06:00,
2013-03-16 08:11:00,28.1,18.3,29.82,SW,235,1.0,-999.0,66,0.00,,,0.00,Python,2013-03-16 12:11:00,
2013-03-16 08:17:00,28.3,18.1,29.82,SE,132,0.0,-999.0,65,0.00,,,0.00,Python,2013-03-16 12:17:00,
2013-03-16 08:22:00,28.4,18.2,29.83,NE,51,0.0,-999.0,65,0.00,,,0.00,Python,2013-03-16 12:22:00,
2013-03-16 08:27:00,28.6,18.0,29.83,NE,54,0.0,-999.0,64,0.00,,,0.00,Python,2013-03-16 12:27:00,
2013-03-16 08:32:00,28.7,17.4,29.82,ENE,59,2.0,-999.0,62,0.00,,,0.00,Python,2013-03-16 12:32:00,
2013-03-16 08:37:00,28.9,17.6,29.82,ENE,59,0.0,-999.0,62,0.00,,,0.00,Python,2013-03-16 12:37:00,
2013-03-16 08:42:00,29.0,16.9,29.83,ENE,61,0.0,-999.0,60,0.00,,,0.00,Python,2013-03-16 12:42:00,
2013-03-16 08:48:00,29.2,16.7,29.83,NE,35,0.0,-999.0,59,0.00,,,0.00,Python,2013-03-16 12:48:00,